Hourly Data Report for September 13, 2017

All times are specified in Local Standard Time (LST). Add 1 hour to adjust for Daylight Saving Time where and when it is observed.

RANKIN INLET A
NUNAVUT

62°48'38.000" N
92°06'53.000" W
32.30 m
2303405
71083
YRT

Download Data

Hourly Data (September 2017)
Hourly Data Report for September 13, 2017
Temp Definition
°C
Dew Point Temp Definition
°C
Rel Hum Definition
%
Wind Dir Definition
10's deg

Wind Spd Definition
km/h
Visibility Definition
km
Stn Press Definition
kPa
Hmdx Definition


Wind Chill Definition


Weather Definition


TIME
00:00 Legend Double Dagger 0.6 -1.0 89 35 12 24.1 100.79     Mainly Clear
01:00 Legend Double Dagger 0.1 -1.2 91 35 13 24.1 100.81     LegendNANA
02:00 Legend Double Dagger 0.0 -1.1 92 35 15 24.1 100.85   -4 LegendNANA
03:00 Legend Double Dagger 0.0 -1.0 93 36 20 24.1 100.89   -5 Mainly Clear
04:00 Legend Double Dagger 0.0 -1.0 93 36 20 24.1 100.95   -5 LegendNANA
05:00 Legend Double Dagger -0.1 -1.1 93 36 19 24.1 101.00   -5 LegendNANA
06:00 Legend Double Dagger -0.2 -1.2 93 36 19 24.1 101.00   -5 Mainly Clear
07:00 Legend Double Dagger 0.6 -0.7 91 36 17 24.1 101.05     LegendNANA
08:00 Legend Double Dagger 1.9 -0.2 86 2 21 24.1 101.08     LegendNANA
09:00 Legend Double Dagger 3.0 0.4 83 3 16 24.1 101.08     Mainly Clear
10:00 Legend Double Dagger 3.6 0.4 80 1 18 24.1 101.13     LegendNANA
11:00 Legend Double Dagger 4.7 0.6 75 1 16 24.1 101.14     LegendNANA
12:00 Legend Double Dagger 5.6 0.1 68 1 20 24.1 101.14     Mostly Cloudy
13:00 Legend Double Dagger 6.1 -0.4 63 36 16 24.1 101.16     LegendNANA
14:00 Legend Double Dagger 6.2 -0.4 63 35 18 24.1 101.14     LegendNANA
15:00 Legend Double Dagger 6.7 -0.9 58 36 20 24.1 101.15     Mostly Cloudy
16:00 Legend Double Dagger 6.7 -0.4 60 1 21 24.1 101.14     LegendNANA
17:00 Legend Double Dagger 6.1 -0.4 63 2 16 24.1 101.17     LegendNANA
18:00 Legend Double Dagger 5.6 0.1 68 7 4 24.1 101.21     Mainly Clear
19:00 Legend Double Dagger 3.8 0.6 80 34 8 24.1 101.23     LegendNANA
20:00 Legend Double Dagger 3.7 -0.5 74 33 8 24.1 101.26     LegendNANA
21:00 Legend Double Dagger 2.7 0.3 84 34 5 24.1 101.26     Mostly Cloudy
22:00 Legend Double Dagger 3.1 0.8 85 34 6 24.1 101.27     LegendNANA
23:00 Legend Double Dagger 1.9 0.0 87 32 8 24.1 101.27     LegendNANA

Notes on Data Quality.

Legend

  • E = Estimated
  • M = Missing
  • NA = Not Available
  • ‡ = Partner data that is not subject to review by the National Climate Archives
Date modified: